QPF
0.02 0.01 0.01 0.02 0.02 0.02 0.02 0.02 0.03 0.04 0.04 0.03 0.02 0.02 0.02 0.01 0.01 0.01 0.01 0.02 0.02 0.03 0.03 0.02 0.02 0.02 0.02 0.02 0.02 0.02 0.01 0.01 0.02 0.02 0.02 0.01 0.01 0.01 0.01 0.01 0.01 0.01 0.01
0.02 0.02 0.01 0.01 0.01 0.02 0.02 0.01 0.01 0.03 0.03 0.03 0.02 0.02 0.01 0.01 0.01 0.01 0.01 0.01 0.01 0.02 0.02 0.03 0.03 0.03 0.03 0.02 0.02 0.01 0.02 0.02 0.02 0.02 0.02 0.02 0.01 0.01 0.01 0.01 0.01 0.01 0.01
0.02 0.02 0.02 0.01 0.01 0.02 0.02 0.02 0.01 0.02 0.02 0.02 0.02 0.02 0.02 0.01 0.01 0.01 0.01 0.00 0.01 0.01 0.01 0.02 0.03 0.03 0.04 0.05 0.03 0.02 0.01 0.01 0.01 0.02 0.02 0.02 0.01 0.01 0.01 0.01 0.01 0.01 0.01
0.01 0.02 0.02 0.01 0.01 0.02 0.03 0.02 0.02 0.01 0.02 0.01 0.01 0.01 0.01 0.01 0.01 0.01 0.01 0.01 0.01 0.00 0.01 0.01 0.02 0.02 0.03 0.05 0.05 0.03 0.02 0.02 0.02 0.02 0.02 0.02 0.02 0.01 0.01 0.02 0.02 0.01 0.01
0.01 0.01 0.02 0.02 0.01 0.02 0.02 0.03 0.02 0.02 0.02 0.02 0.02 0.01 0.01 0.01 0.01 0.01 0.01 0.01 0.01 0.01 0.01 0.01 0.01 0.02 0.02 0.03 0.04 0.04 0.04 0.04 0.07 0.05 0.03 0.03 0.02 0.02 0.02 0.02 0.02 0.02 0.02
0.02 0.01 0.02 0.03 0.03 0.02 0.02 0.02 0.02 0.02 0.02 0.02 0.02 0.01 0.01 0.01 0.01 0.01 0.01 0.01 0.01 0.01 0.01 0.01 0.01 0.01 0.01 0.02 0.04 0.08 0.09 0.08 0.08 0.08 0.07 0.06 0.05 0.04 0.03 0.03 0.03 0.03 0.03
0.03 0.03 0.02 0.03 0.03 0.03 0.02 0.02 0.03 0.03 0.03 0.02 0.02 0.02 0.01 0.01 0.01 0.01 0.01 0.01 0.01 0.01 0.01 0.01 0.01 0.01 0.01 0.01 0.02 0.04 0.07 0.09 0.07 0.07 0.07 0.07 0.05 0.04 0.04 0.04 0.03 0.02 0.02
0.02 0.02 0.03 0.04 0.04 0.03 0.03 0.02 0.02 0.02 0.03 0.03 0.03 0.02 0.02 0.02 0.02 0.01 0.01 0.01 0.01 0.01 0.00 0.00 0.00 0.01 0.01 0.01 0.02 0.03 0.03 0.03 0.03 0.03 0.03 0.03 0.04 0.04 0.04 0.04 0.04 0.03 0.03
0.01 0.02 0.04 0.05 0.05 0.04 0.03 0.02 0.02 0.01 0.01 0.01 0.02 0.02 0.01 0.01 0.01 0.02 0.02 0.02 0.01 0.01 0.01 0.01 0.01 0.02 0.02 0.02 0.02 0.03 0.02 0.02 0.02 0.02 0.02 0.02 0.03 0.03 0.04 0.05 0.05 0.05 0.04
0.02 0.02 0.03 0.06 0.07 0.05 0.04 0.04 0.02 0.01 0.01 0.01 0.01 0.01 0.01 0.00 0.01 0.01 0.02 0.02 0.02 0.02 0.02 0.02 0.02 0.03 0.03 0.03 0.03 0.03 0.03 0.02 0.02 0.02 0.02 0.02 0.02 0.03 0.04 0.05 0.07 0.07 0.06
0.02 0.02 0.03 0.05 0.05 0.05 0.05 0.05 0.04 0.02 0.01 0.01 0.01 0.01 0.00 0.00 0.00 0.00 0.01 0.01 0.01 0.02 0.02 0.01 0.01 0.02 0.03 0.03 0.02 0.02 0.02 0.02 0.02 0.02 0.02 0.01 0.02 0.02 0.03 0.04 0.06 0.08 0.08
0.02 0.02 0.02 0.03 0.05 0.05 0.04 0.04 0.03 0.02 0.01 0.01 0.01 0.01 0.00 0.00 0.00 0.00 0.00 0.00 0.01 0.01 0.02 0.02 0.01 0.02 0.02 0.02 0.01 0.01 0.02 0.01 0.02 0.02 0.02 0.01 0.01 0.02 0.03 0.03 0.04 0.06 0.08
0.02 0.02 0.02 0.02 0.03 0.04 0.05 0.04 0.03 0.03 0.01 0.01 0.01 0.01 0.01 0.00 0.00 0.00 0.01 0.01 0.01 0.01 0.02 0.02 0.02 0.02 0.02 0.02 0.01 0.01 0.01 0.01 0.01 0.01 0.01 0.01 0.01 0.01 0.01 0.02 0.03 0.04 0.05
0.02 0.02 0.02 0.01 0.01 0.02 0.02 0.03 0.04 0.03 0.02 0.01 0.01 0.01 0.01 0.01 0.01 0.01 0.01 0.02 0.02 0.02 0.01 0.02 0.02 0.02 0.02 0.02 0.02 0.01 0.01 0.01 0.00 0.01 0.01 0.01 0.01 0.01 0.01 0.01 0.02 0.02 0.03
0.01 0.02 0.02 0.02 0.02 0.01 0.02 0.02 0.04 0.03 0.02 0.01 0.01 0.01 0.01 0.01 0.01 0.01 0.01 0.02 0.02 0.02 0.02 0.01 0.01 0.02 0.02 0.02 0.02 0.01 0.01 0.01 0.01 0.01 0.01 0.01 0.01 0.01 0.01 0.01 0.01 0.01 0.02
0.01 0.01 0.02 0.02 0.02 0.02 0.02 0.02 0.03 0.04 0.03 0.02 0.01 0.01 0.01 0.01 0.01 0.01 0.01 0.01 0.02 0.02 0.03 0.02 0.02 0.02 0.02 0.02 0.02 0.02 0.01 0.01 0.01 0.01 0.01 0.01 0.01 0.00 0.00 0.01 0.01 0.01 0.01
0.01 0.01 0.01 0.01 0.02 0.02 0.02 0.02 0.02 0.02 0.03 0.03 0.02 0.01 0.01 0.01 0.01 0.01 0.01 0.01 0.02 0.02 0.02 0.02 0.02 0.02 0.02 0.02 0.02 0.02 0.02 0.02 0.01 0.01 0.01 0.00 0.00 0.00 0.00 0.01 0.01 0.01 0.01
0.00 0.00 0.00 0.00 0.01 0.01 0.01 0.01 0.01 0.01 0.02 0.02 0.02 0.01 0.01 0.01 0.01 0.01 0.01 0.01 0.01 0.01 0.01 0.01 0.01 0.01 0.01 0.01 0.01 0.01 0.01 0.01 0.01 0.01 0.00 0.00 0.00 0.00 0.00 0.01 0.01 0.01 0.01
0.01 0.00 0.00 0.00 0.00 0.00 0.01 0.01 0.01 0.01 0.01 0.01 0.01 0.01 0.01 0.01 0.01 0.01 0.01 0.01 0.01 0.01 0.01 0.01 0.01 0.01 0.01 0.01 0.01 0.01 0.01 0.01 0.01 0.01 0.01 0.00 0.00 0.00 0.00 0.01 0.01 0.01 0.01
0.01 0.01 0.01 0.00 0.00 0.00 0.00 0.01 0.01 0.01 0.01 0.01 0.01 0.01 0.01 0.01 0.01 0.01 0.01 0.01 0.01 0.01 0.01 0.01 0.01 0.01 0.01 0.01 0.01 0.01 0.01 0.01 0.01 0.01 0.01 0.01 0.01 0.00 0.00 0.01 0.01 0.01 0.01
0.02 0.01 0.01 0.01 0.01 0.00 0.00 0.01 0.01 0.01 0.01 0.01 0.01 0.01 0.01 0.02 0.02 0.02 0.01 0.01 0.01 0.01 0.01 0.01 0.01 0.02 0.01 0.01 0.01 0.01 0.01 0.01 0.01 0.01 0.01 0.01 0.01 0.00 0.00 0.01 0.01 0.01 0.01
0.02 0.02 0.02 0.02 0.02 0.01 0.01 0.01 0.01 0.01 0.01 0.01 0.01 0.01 0.01 0.02 0.02 0.02 0.02 0.02 0.02 0.02 0.02 0.02 0.02 0.01 0.01 0.01 0.01 0.01 0.01 0.01 0.01 0.01 0.01 0.01 0.01 0.01 0.01 0.01 0.01 0.01 0.01
0.02 0.02 0.02 0.02 0.02 0.02 0.01 0.01 0.01 0.01 0.01 0.01 0.01 0.01 0.01 0.02 0.02 0.01 0.02 0.02 0.02 0.02 0.02 0.02 0.02 0.01 0.01 0.01 0.01 0.02 0.01 0.01 0.01 0.01 0.01 0.01 0.01 0.01 0.01 0.01 0.01 0.02 0.01
0.02 0.02 0.02 0.02 0.02 0.02 0.02 0.01 0.01 0.01 0.01 0.01 0.01 0.01 0.01 0.01 0.01 0.01 0.01 0.01 0.01 0.01 0.01 0.01 0.01 0.01 0.01 0.01 0.01 0.02 0.01 0.01 0.01 0.01 0.01 0.01 0.01 0.01 0.01 0.01 0.01 0.01 0.01
0.01 0.01 0.02 0.02 0.02 0.02 0.02 0.02 0.01 0.01 0.01 0.01 0.01 0.01 0.00 0.01 0.01 0.01 0.01 0.01 0.01 0.01 0.01 0.01 0.01 0.01 0.01 0.01 0.01 0.01 0.01 0.01 0.01 0.01 0.01 0.01 0.01 0.01 0.01 0.01 0.01 0.01 0.01
0.02 0.02 0.01 0.02 0.02 0.02 0.03 0.02 0.02 0.01 0.01 0.01 0.01 0.01 0.01 0.01 0.01 0.01 0.01 0.01 0.01 0.01 0.01 0.01 0.01 0.01 0.01 0.01 0.01 0.01 0.01 0.01 0.01 0.01 0.01 0.01 0.01 0.01 0.02 0.02 0.01 0.01 0.02
MSLP
1010.81 1010.56 1010.35 1010.23 1010.24 1010.41 1010.74 1011.20 1011.76 1012.35 1012.92 1013.45 1013.90 1014.28 1014.62 1014.95 1015.30 1015.69 1016.14 1016.62 1017.11 1017.59 1018.03 1018.42 1018.76 1019.05 1019.32 1019.60 1019.90 1020.21 1020.53 1020.85 1021.15 1021.41 1021.62 1021.78 1021.90 1022.01 1022.12 1022.24 1022.36 1022.49 1022.62
1010.32 1010.09 1009.89 1009.78 1009.80 1009.98 1010.33 1010.82 1011.41 1012.05 1012.68 1013.26 1013.76 1014.20 1014.58 1014.94 1015.30 1015.70 1016.14 1016.60 1017.08 1017.54 1017.97 1018.36 1018.71 1019.03 1019.34 1019.65 1019.99 1020.34 1020.70 1021.06 1021.38 1021.65 1021.87 1022.02 1022.14 1022.23 1022.31 1022.39 1022.49 1022.60 1022.71
1009.83 1009.62 1009.45 1009.36 1009.41 1009.62 1010.00 1010.53 1011.17 1011.86 1012.55 1013.19 1013.76 1014.25 1014.67 1015.06 1015.43 1015.82 1016.23 1016.67 1017.11 1017.54 1017.95 1018.32 1018.67 1018.99 1019.32 1019.67 1020.04 1020.43 1020.82 1021.21 1021.56 1021.86 1022.09 1022.25 1022.35 1022.42 1022.48 1022.54 1022.61 1022.69 1022.78
1009.32 1009.15 1009.01 1008.96 1009.05 1009.30 1009.72 1010.30 1011.00 1011.75 1012.50 1013.21 1013.84 1014.39 1014.86 1015.27 1015.65 1016.03 1016.41 1016.81 1017.20 1017.60 1017.97 1018.32 1018.64 1018.97 1019.30 1019.65 1020.04 1020.45 1020.87 1021.28 1021.66 1021.97 1022.22 1022.39 1022.49 1022.56 1022.59 1022.63 1022.68 1022.74 1022.81
1008.76 1008.63 1008.55 1008.56 1008.70 1009.00 1009.47 1010.10 1010.84 1011.65 1012.47 1013.24 1013.93 1014.53 1015.05 1015.49 1015.88 1016.25 1016.62 1016.98 1017.35 1017.70 1018.03 1018.35 1018.65 1018.95 1019.27 1019.62 1019.99 1020.40 1020.83 1021.25 1021.63 1021.96 1022.21 1022.39 1022.51 1022.57 1022.60 1022.63 1022.66 1022.70 1022.76
1008.16 1008.09 1008.06 1008.13 1008.32 1008.67 1009.19 1009.86 1010.65 1011.50 1012.37 1013.19 1013.94 1014.59 1015.15 1015.63 1016.05 1016.43 1016.79 1017.14 1017.48 1017.81 1018.12 1018.41 1018.69 1018.96 1019.25 1019.56 1019.91 1020.29 1020.69 1021.09 1021.46 1021.79 1022.05 1022.24 1022.36 1022.42 1022.46 1022.48 1022.50 1022.54 1022.60
1007.57 1007.54 1007.57 1007.69 1007.93 1008.33 1008.88 1009.58 1010.40 1011.28 1012.17 1013.03 1013.82 1014.51 1015.11 1015.63 1016.08 1016.48 1016.86 1017.22 1017.57 1017.90 1018.20 1018.48 1018.73 1018.98 1019.23 1019.50 1019.79 1020.12 1020.48 1020.84 1021.18 1021.49 1021.74 1021.93 1022.05 1022.12 1022.16 1022.18 1022.21 1022.24 1022.29
1007.05 1007.05 1007.13 1007.29 1007.58 1008.00 1008.58 1009.28 1010.10 1010.98 1011.88 1012.75 1013.55 1014.27 1014.90 1015.45 1015.94 1016.38 1016.79 1017.19 1017.57 1017.92 1018.24 1018.53 1018.79 1019.01 1019.23 1019.45 1019.69 1019.95 1020.24 1020.54 1020.83 1021.10 1021.33 1021.51 1021.63 1021.70 1021.74 1021.77 1021.79 1021.82 1021.87
1006.70 1006.73 1006.83 1007.02 1007.33 1007.77 1008.34 1009.03 1009.83 1010.68 1011.56 1012.41 1013.20 1013.92 1014.56 1015.13 1015.64 1016.12 1016.58 1017.03 1017.46 1017.86 1018.23 1018.55 1018.83 1019.06 1019.26 1019.44 1019.63 1019.83 1020.04 1020.27 1020.51 1020.73 1020.92 1021.07 1021.18 1021.25 1021.28 1021.30 1021.32 1021.34 1021.38
1006.60 1006.64 1006.76 1006.96 1007.28 1007.70 1008.25 1008.91 1009.66 1010.46 1011.29 1012.09 1012.84 1013.53 1014.16 1014.73 1015.26 1015.77 1016.27 1016.77 1017.26 1017.73 1018.16 1018.55 1018.87 1019.13 1019.34 1019.50 1019.65 1019.80 1019.95 1020.11 1020.29 1020.45 1020.60 1020.72 1020.81 1020.86 1020.88 1020.88 1020.88 1020.88 1020.90
1006.78 1006.83 1006.95 1007.15 1007.45 1007.86 1008.37 1008.98 1009.67 1010.40 1011.15 1011.89 1012.58 1013.22 1013.80 1014.35 1014.87 1015.38 1015.91 1016.46 1017.01 1017.55 1018.06 1018.53 1018.92 1019.23 1019.47 1019.65 1019.78 1019.90 1020.00 1020.11 1020.23 1020.35 1020.45 1020.54 1020.60 1020.62 1020.62 1020.59 1020.56 1020.53 1020.51
1007.22 1007.26 1007.37 1007.57 1007.85 1008.22 1008.69 1009.24 1009.86 1010.53 1011.20 1011.86 1012.47 1013.04 1013.57 1014.06 1014.55 1015.05 1015.59 1016.16 1016.76 1017.37 1017.96 1018.50 1018.98 1019.37 1019.66 1019.88 1020.03 1020.13 1020.22 1020.29 1020.37 1020.44 1020.51 1020.56 1020.59 1020.59 1020.55 1020.49 1020.42 1020.35 1020.29
1007.81 1007.84 1007.95 1008.12 1008.38 1008.72 1009.15 1009.65 1010.21 1010.81 1011.42 1012.00 1012.54 1013.04 1013.49 1013.92 1014.36 1014.83 1015.35 1015.93 1016.55 1017.22 1017.88 1018.50 1019.06 1019.53 1019.90 1020.17 1020.36 1020.48 1020.56 1020.62 1020.67 1020.72 1020.76 1020.78 1020.78 1020.75 1020.69 1020.60 1020.49 1020.37 1020.26
1008.42 1008.45 1008.54 1008.70 1008.93 1009.24 1009.64 1010.11 1010.63 1011.19 1011.74 1012.27 1012.75 1013.18 1013.57 1013.94 1014.32 1014.74 1015.22 1015.79 1016.43 1017.12 1017.84 1018.54 1019.17 1019.72 1020.17 1020.50 1020.73 1020.88 1020.98 1021.04 1021.08 1021.11 1021.13 1021.13 1021.12 1021.07 1020.99 1020.87 1020.73 1020.57 1020.40
1008.93 1008.96 1009.03 1009.17 1009.39 1009.68 1010.06 1010.51 1011.01 1011.55 1012.08 1012.58 1013.02 1013.41 1013.75 1014.07 1014.40 1014.78 1015.23 1015.77 1016.40 1017.11 1017.86 1018.61 1019.31 1019.92 1020.43 1020.82 1021.10 1021.29 1021.40 1021.46 1021.50 1021.52 1021.53 1021.52 1021.50 1021.44 1021.35 1021.23 1021.07 1020.88 1020.68
1009.24 1009.27 1009.34 1009.46 1009.66 1009.95 1010.32 1010.77 1011.28 1011.82 1012.35 1012.85 1013.30 1013.67 1014.00 1014.29 1014.58 1014.92 1015.34 1015.86 1016.47 1017.18 1017.94 1018.72 1019.46 1020.12 1020.67 1021.11 1021.42 1021.63 1021.76 1021.82 1021.86 1021.87 1021.87 1021.86 1021.84 1021.79 1021.70 1021.58 1021.41 1021.22 1020.99
1009.34 1009.36 1009.43 1009.54 1009.74 1010.02 1010.39 1010.86 1011.38 1011.95 1012.52 1013.05 1013.52 1013.91 1014.25 1014.54 1014.83 1015.15 1015.55 1016.05 1016.65 1017.34 1018.09 1018.87 1019.62 1020.30 1020.88 1021.33 1021.66 1021.88 1022.01 1022.08 1022.10 1022.11 1022.10 1022.09 1022.07 1022.02 1021.95 1021.84 1021.69 1021.49 1021.26
1009.27 1009.30 1009.37 1009.49 1009.68 1009.96 1010.35 1010.83 1011.38 1011.98 1012.59 1013.17 1013.68 1014.12 1014.50 1014.82 1015.12 1015.45 1015.85 1016.33 1016.91 1017.58 1018.32 1019.08 1019.81 1020.49 1021.06 1021.51 1021.83 1022.05 1022.17 1022.22 1022.23 1022.23 1022.21 1022.19 1022.17 1022.13 1022.07 1021.97 1021.84 1021.65 1021.42
1009.13 1009.18 1009.26 1009.39 1009.59 1009.88 1010.28 1010.78 1011.36 1011.99 1012.64 1013.27 1013.84 1014.33 1014.76 1015.13 1015.47 1015.82 1016.22 1016.70 1017.26 1017.91 1018.61 1019.33 1020.04 1020.68 1021.22 1021.65 1021.96 1022.16 1022.26 1022.30 1022.29 1022.27 1022.23 1022.20 1022.17 1022.13 1022.07 1021.98 1021.85 1021.67 1021.45
1009.00 1009.09 1009.20 1009.36 1009.58 1009.89 1010.30 1010.81 1011.41 1012.07 1012.75 1013.42 1014.03 1014.59 1015.07 1015.49 1015.87 1016.26 1016.68 1017.16 1017.71 1018.32 1018.98 1019.66 1020.31 1020.91 1021.41 1021.81 1022.09 1022.26 1022.35 1022.36 1022.34 1022.29 1022.24 1022.19 1022.13 1022.07 1022.00 1021.89 1021.75 1021.57 1021.34
1008.95 1009.09 1009.26 1009.45 1009.71 1010.04 1010.47 1010.99 1011.60 1012.27 1012.98 1013.67 1014.33 1014.92 1015.45 1015.92 1016.36 1016.78 1017.22 1017.70 1018.23 1018.81 1019.43 1020.05 1020.64 1021.18 1021.64 1022.00 1022.25 1022.40 1022.47 1022.48 1022.44 1022.37 1022.30 1022.21 1022.12 1022.03 1021.91 1021.77 1021.60 1021.38 1021.12
1008.96 1009.18 1009.42 1009.68 1009.98 1010.35 1010.80 1011.34 1011.96 1012.64 1013.34 1014.05 1014.73 1015.36 1015.93 1016.44 1016.92 1017.37 1017.83 1018.31 1018.82 1019.37 1019.93 1020.49 1021.03 1021.51 1021.92 1022.24 1022.47 1022.61 1022.67 1022.68 1022.63 1022.55 1022.45 1022.33 1022.20 1022.04 1021.87 1021.66 1021.43 1021.16 1020.84
1009.00 1009.30 1009.62 1009.96 1010.33 1010.76 1011.25 1011.81 1012.44 1013.12 1013.82 1014.53 1015.22 1015.87 1016.47 1017.02 1017.53 1018.01 1018.49 1018.97 1019.46 1019.96 1020.47 1020.98 1021.45 1021.88 1022.24 1022.53 1022.74 1022.88 1022.95 1022.96 1022.92 1022.83 1022.71 1022.55 1022.36 1022.14 1021.89 1021.61 1021.29 1020.93 1020.54
1008.97 1009.36 1009.77 1010.20 1010.66 1011.16 1011.70 1012.30 1012.95 1013.63 1014.34 1015.06 1015.75 1016.42 1017.04 1017.62 1018.15 1018.66 1019.15 1019.63 1020.10 1020.57 1021.03 1021.47 1021.88 1022.26 1022.58 1022.84 1023.05 1023.19 1023.27 1023.30 1023.27 1023.18 1023.04 1022.85 1022.61 1022.31 1021.98 1021.60 1021.18 1020.74 1020.26
1008.79 1009.26 1009.77 1010.30 1010.85 1011.43 1012.05 1012.70 1013.39 1014.10 1014.82 1015.54 1016.25 1016.93 1017.58 1018.18 1018.75 1019.28 1019.78 1020.25 1020.71 1021.15 1021.56 1021.95 1022.31 1022.63 1022.92 1023.15 1023.35 1023.50 1023.59 1023.64 1023.62 1023.54 1023.38 1023.16 1022.87 1022.51 1022.09 1021.62 1021.11 1020.57 1020.01
1008.45 1008.99 1009.57 1010.20 1010.85 1011.53 1012.23 1012.95 1013.69 1014.44 1015.19 1015.94 1016.67 1017.37 1018.04 1018.68 1019.27 1019.83 1020.35 1020.83 1021.27 1021.68 1022.06 1022.40 1022.70 1022.98 1023.22 1023.44 1023.62 1023.76 1023.87 1023.92 1023.91 1023.83 1023.67 1023.42 1023.09 1022.67 1022.18 1021.64 1021.05 1020.44 1019.80
Thickness
5659 5659 5660 5660 5660 5660 5660 5661 5661 5660 5660 5660 5660 5660 5660 5660 5659 5658 5657 5656 5656 5656 5656 5656 5657 5657 5656 5656 5655 5655 5654 5653 5652 5651 5650 5649 5648 5647 5646 5646 5645 5644 5643
5653 5653 5654 5654 5654 5655 5655 5655 5655 5655 5654 5654 5654 5654 5654 5653 5653 5652 5651 5650 5650 5650 5650 5650 5650 5650 5650 5650 5649 5649 5648 5647 5646 5645 5644 5642 5641 5640 5640 5639 5638 5638 5637
5647 5647 5648 5648 5648 5649 5649 5649 5649 5648 5647 5647 5647 5647 5647 5647 5646 5646 5645 5645 5644 5643 5643 5643 5643 5643 5643 5643 5643 5642 5642 5641 5640 5638 5637 5636 5634 5633 5633 5632 5632 5631 5629
5641 5641 5642 5642 5642 5642 5642 5642 5642 5642 5641 5641 5641 5640 5639 5639 5640 5640 5639 5639 5638 5638 5637 5637 5637 5636 5636 5636 5636 5636 5635 5635 5633 5631 5630 5629 5627 5626 5626 5625 5624 5623 5622
5634 5635 5636 5636 5636 5636 5636 5636 5636 5636 5635 5634 5633 5632 5632 5632 5632 5632 5633 5632 5631 5631 5631 5630 5630 5630 5630 5629 5629 5629 5628 5627 5626 5624 5623 5622 5620 5620 5619 5618 5617 5616 5615
5628 5629 5630 5630 5630 5630 5630 5630 5629 5629 5628 5627 5626 5624 5624 5624 5624 5625 5625 5625 5624 5624 5624 5624 5624 5624 5623 5622 5622 5621 5621 5619 5618 5617 5616 5615 5613 5612 5612 5611 5610 5609 5608
5621 5622 5623 5624 5624 5624 5624 5624 5623 5621 5620 5620 5618 5616 5616 5616 5617 5618 5618 5618 5618 5617 5617 5617 5617 5617 5617 5616 5615 5614 5613 5612 5610 5609 5608 5607 5606 5605 5605 5604 5603 5602 5601
5614 5616 5617 5617 5618 5618 5617 5618 5617 5615 5614 5613 5614 5612 5611 5610 5610 5610 5610 5610 5611 5610 5610 5610 5610 5610 5610 5609 5608 5607 5605 5605 5603 5602 5601 5600 5599 5598 5597 5596 5596 5594 5593
5608 5609 5610 5610 5611 5611 5611 5611 5611 5610 5609 5607 5608 5609 5608 5609 5606 5604 5603 5603 5603 5604 5603 5603 5603 5602 5602 5602 5601 5599 5598 5597 5595 5594 5594 5593 5592 5591 5590 5589 5588 5587 5585
5600 5602 5602 5603 5604 5604 5604 5604 5605 5605 5604 5602 5600 5601 5603 5605 5602 5600 5597 5597 5596 5596 5596 5596 5595 5595 5595 5594 5593 5591 5590 5589 5588 5587 5586 5585 5584 5583 5582 5581 5580 5579 5578
5593 5594 5595 5596 5596 5597 5597 5597 5597 5598 5598 5598 5596 5594 5593 5593 5595 5595 5594 5592 5590 5589 5589 5588 5588 5588 5587 5586 5585 5584 5582 5581 5580 5579 5578 5577 5575 5574 5573 5572 5571 5570 5569
5586 5587 5588 5589 5590 5590 5590 5590 5590 5591 5591 5592 5591 5590 5590 5589 5589 5589 5589 5586 5585 5584 5581 5581 5580 5580 5579 5579 5577 5576 5574 5573 5572 5571 5570 5568 5566 5565 5564 5563 5562 5561 5560
5579 5581 5581 5582 5583 5583 5583 5583 5583 5584 5584 5585 5584 5584 5584 5584 5584 5583 5582 5580 5578 5576 5574 5574 5573 5571 5571 5570 5569 5568 5566 5565 5563 5562 5561 5559 5558 5556 5555 5554 5553 5551 5550
5573 5574 5574 5576 5576 5576 5577 5577 5577 5576 5577 5577 5577 5577 5577 5576 5575 5575 5574 5572 5570 5569 5568 5568 5566 5564 5563 5562 5561 5560 5559 5557 5556 5554 5552 5551 5549 5547 5546 5544 5543 5542 5541
5565 5566 5567 5568 5569 5569 5570 5570 5570 5570 5569 5569 5569 5569 5569 5568 5567 5566 5566 5565 5564 5564 5564 5562 5559 5556 5554 5553 5552 5551 5550 5548 5547 5545 5543 5542 5540 5538 5537 5535 5534 5532 5531
5556 5558 5559 5561 5561 5562 5562 5563 5563 5563 5562 5562 5561 5561 5561 5560 5559 5558 5558 5557 5557 5556 5557 5555 5551 5549 5546 5544 5543 5542 5540 5539 5538 5536 5534 5533 5531 5530 5528 5526 5525 5523 5521
5546 5549 5551 5552 5554 5554 5555 5555 5555 5555 5554 5554 5553 5553 5553 5552 5551 5551 5550 5549 5548 5548 5547 5545 5542 5540 5538 5536 5534 5533 5531 5530 5529 5527 5525 5524 5522 5521 5519 5517 5515 5513 5511
5537 5540 5542 5544 5545 5546 5547 5548 5548 5547 5548 5547 5547 5546 5545 5544 5543 5542 5541 5541 5540 5539 5538 5537 5534 5531 5529 5528 5526 5524 5522 5521 5520 5518 5516 5514 5513 5511 5509 5508 5506 5504 5501
5528 5530 5532 5535 5536 5538 5539 5540 5540 5540 5540 5540 5539 5538 5538 5537 5536 5535 5533 5532 5531 5530 5529 5528 5526 5523 5520 5518 5516 5515 5513 5512 5510 5508 5506 5505 5503 5502 5500 5498 5496 5494 5492
5517 5520 5522 5525 5527 5528 5530 5531 5531 5531 5531 5531 5530 5530 5530 5529 5528 5527 5525 5524 5522 5520 5519 5518 5517 5514 5512 5509 5508 5507 5505 5503 5501 5499 5497 5496 5494 5492 5491 5489 5487 5484 5482
5506 5509 5511 5514 5516 5518 5519 5521 5521 5521 5522 5521 5521 5520 5520 5520 5519 5518 5517 5516 5514 5512 5511 5509 5508 5506 5504 5501 5499 5498 5497 5495 5493 5490 5489 5487 5486 5484 5482 5480 5477 5475 5473
5494 5497 5500 5503 5505 5507 5509 5509 5511 5511 5511 5512 5511 5511 5510 5509 5508 5507 5507 5506 5504 5503 5502 5500 5500 5499 5498 5494 5492 5489 5487 5484 5484 5482 5479 5478 5475 5474 5472 5470 5468 5466 5464
5483 5486 5489 5492 5495 5497 5497 5498 5499 5500 5501 5501 5501 5501 5500 5500 5498 5498 5496 5495 5493 5492 5492 5491 5491 5490 5489 5486 5482 5478 5476 5474 5474 5472 5468 5469 5466 5464 5462 5460 5458 5456 5454
5471 5475 5478 5480 5483 5485 5485 5486 5487 5488 5490 5490 5491 5491 5491 5490 5489 5488 5487 5486 5485 5483 5481 5480 5480 5479 5477 5474 5471 5469 5466 5463 5462 5459 5456 5457 5456 5454 5451 5449 5447 5445 5443
5458 5462 5466 5468 5471 5473 5473 5474 5475 5477 5478 5479 5479 5479 5480 5480 5478 5477 5476 5475 5474 5473 5470 5468 5468 5466 5465 5462 5459 5456 5454 5452 5452 5451 5445 5444 5445 5442 5441 5440 5437 5434 5432
5445 5449 5452 5456 5459 5461 5461 5462 5463 5465 5466 5467 5467 5468 5468 5468 5466 5465 5465 5465 5463 5462 5459 5457 5456 5455 5453 5451 5448 5446 5444 5441 5440 5440 5436 5432 5431 5428 5429 5430 5426 5423 5420